Stations météo

Publicité
Düsseldorf, Allemagne (10400): Température de l'air & dewpoint: 19.06.2018 02:00:00 - 25.06.2018 02:00:00 (CEST)Düsseldorf, Allemagne (10400): Température de l'air 5cm & Température de l'air -5cm: 19.06.2018 02:00:00 - 25.06.2018 02:00:00 (CEST)Düsseldorf, Allemagne (10400): Température de l'air -20cm & Température de l'air -100cm: 19.06.2018 02:00:00 - 25.06.2018 02:00:00 (CEST)Düsseldorf, Allemagne (10400): Vitesse du vent & gusts: 19.06.2018 02:00:00 - 25.06.2018 02:00:00 (CEST)Düsseldorf, Allemagne (10400): Direction du vent: 19.06.2018 02:00:00 - 25.06.2018 02:00:00 (CEST)Düsseldorf, Allemagne (10400): reduced air pressure: 19.06.2018 02:00:00 - 25.06.2018 02:00:00 (CEST)Düsseldorf, Allemagne (10400): visibility: 19.06.2018 02:00:00 - 25.06.2018 02:00:00 (CEST)Düsseldorf, Allemagne (10400): Ensoleillement: 19.06.2018 02:00:00 - 25.06.2018 02:00:00 (CEST)Düsseldorf, Allemagne (10400): Quantités de précipitations: 19.06.2018 02:00:00 - 25.06.2018 02:00:00 (CEST)
Date & Time tt [°C] td [°C] tt 5cm [°C] tt -5cm [°C] tt -20cm [°C] tt -100cm [°C] ff [km/h] ff [knt] fx [km/h] fx [knt] dd ppp [hPa] vv [km] sd [min] rr [mm]
25.06.2018 02:00:00 - - - - - - - - - - - - - - -
25.06.2018 01:00:00 14,0 12,5 13,6 18,1 20,1 18,6 13 7 22 12 NW 1023,2 10 0 0,0
25.06.2018 00:00:00 14,7 11,8 14,7 18,7 20,4 18,6 13 7 21 11 NW 1023,1 10 0 0,0
24.06.2018 23:00:00 14,6 12,0 14,5 19,2 20,8 18,6 11 6 28 15 NNW 1023,1 10 0 0,0
24.06.2018 22:00:00 15,5 11,7 15,5 20,0 21,1 18,7 18 10 29 16 N 1022,8 25 0 0,0
24.06.2018 21:00:00 16,3 11,2 16,3 20,8 21,3 18,7 11 6 24 13 N 1022,4 10 0 0,0
24.06.2018 20:00:00 16,4 11,2 16,7 21,5 21,5 18,7 11 6 22 12 NNW 1022,7 10 0 0,0
24.06.2018 19:00:00 16,7 11,0 17,2 22,4 21,7 18,7 9 5 25 14 N 1022,7 10 0 0,0
24.06.2018 18:00:00 17,2 10,6 17,6 23,5 21,7 18,7 17 9 28 15 NNW 1022,7 55 0 0,0
24.06.2018 17:00:00 17,3 10,0 18,0 24,3 21,7 18,7 15 8 24 13 NNW 1022,9 10 0 0,0
24.06.2018 16:00:00 17,4 9,4 18,6 25,0 21,4 18,7 15 8 26 14 NW 1022,9 10 0 0,0
24.06.2018 15:00:00 17,9 8,7 19,7 26,2 20,8 18,7 16 9 26 14 NNW 1023,0 45 3 0,0
24.06.2018 14:00:00 17,8 7,2 20,7 25,9 20,0 18,7 17 9 28 15 NW 1023,3 45 10 0,0
24.06.2018 13:00:00 17,6 7,2 20,6 24,5 19,2 18,8 14 8 26 14 NW 1023,4 45 29 0,0
24.06.2018 12:00:00 17,5 9,8 20,3 21,9 18,6 18,8 11 6 24 13 NNW 1023,5 40 17 0,0
24.06.2018 11:00:00 15,8 9,1 17,3 20,5 18,2 18,8 10 5 23 13 NNW 1023,6 40 5 0,0
24.06.2018 10:00:00 15,2 9,1 16,6 18,5 17,9 18,8 15 8 26 14 NNW 1023,6 40 0 0,0
24.06.2018 09:00:00 14,6 9,1 15,7 17,3 17,7 18,8 9 5 15 8 N 1023,4 45 29 0,0
24.06.2018 08:00:00 13,4 10,3 13,3 15,9 17,8 18,8 8 4 11 6 N 1023,1 10 4 0,0
24.06.2018 07:00:00 11,7 10,2 11,5 15,3 18,0 18,8 4 2 8 4 - 1022,9 10 2 0,0
24.06.2018 06:00:00 10,8 9,8 9,1 15,5 18,2 18,8 4 2 8 4 NE 1022,8 10 0 0,0
24.06.2018 05:00:00 11,8 10,6 11,3 15,9 18,5 18,8 4 2 8 4 N 1022,6 10 0 0,0
24.06.2018 04:00:00 12,4 11,0 11,9 16,4 18,7 18,8 4 2 8 4 NW 1022,7 40 0 0,0
24.06.2018 03:00:00 12,3 10,9 12,2 16,7 19,0 18,9 2 1 5 3 N 1023,2 20 0 0,0
24.06.2018 02:00:00 12,4 10,6 11,3 16,9 19,3 18,9 4 2 9 5 ENE 1023,6 25 0 0,0
24.06.2018 01:00:00 12,3 10,5 11,5 17,4 19,6 18,9 5 3 8 4 ENE 1024,1 10 0 0,0
24.06.2018 00:00:00 13,1 10,6 11,9 17,9 19,9 18,9 2 1 5 3 W 1024,3 25 0 0,0
23.06.2018 23:00:00 13,8 10,7 12,4 18,5 20,3 18,9 2 1 5 3 - 1024,4 10 0 0,0
23.06.2018 22:00:00 14,0 10,0 11,7 19,5 20,7 18,9 2 1 14 7 - 1024,3 10 0 0,0
23.06.2018 21:00:00 16,4 9,3 15,4 21,0 20,9 19,0 11 6 25 14 WNW 1024,4 45 11 0,0
23.06.2018 20:00:00 18,3 9,1 19,2 22,5 20,9 19,0 16 9 28 15 WNW 1024,4 10 21 0,0
23.06.2018 19:00:00 17,6 8,6 18,1 23,1 20,7 19,0 15 8 27 14 NW 1025,0 10 6 0,0
23.06.2018 18:00:00 17,8 9,2 19,2 25,0 20,2 19,0 15 8 40 22 NW 1025,4 10 34 0,0
23.06.2018 17:00:00 18,2 9,0 22,1 24,3 19,5 19,0 20 11 34 18 WNW 1025,6 25 26 0,0
23.06.2018 16:00:00 17,1 9,8 20,9 23,4 18,9 19,0 18 10 29 16 WNW 1026,5 15 25 0,0
23.06.2018 15:00:00 15,5 9,8 17,6 20,6 18,5 19,1 15 8 26 14 W 1027,1 10 1 0,0
23.06.2018 14:00:00 14,3 9,6 15,3 19,1 18,3 19,1 16 9 29 15 W 1027,6 10 0 0,0
23.06.2018 13:00:00 15,0 9,3 16,7 19,0 18,0 19,1 16 9 29 16 WNW 1027,5 15 0 0,0
23.06.2018 12:00:00 14,2 9,0 15,2 18,2 17,8 19,1 15 8 31 17 WNW 1027,3 10 0 0,0
23.06.2018 11:00:00 14,4 8,4 15,4 18,5 17,4 19,1 15 8 26 14 NW 1027,3 15 17 0,0
23.06.2018 10:00:00 13,4 8,7 15,2 17,0 17,2 19,1 14 8 24 13 WNW 1027,6 15 7 0,0
23.06.2018 09:00:00 10,9 9,2 11,2 15,1 17,2 19,1 13 7 26 14 W 1027,8 10 0 0,0
23.06.2018 08:00:00 11,0 7,7 11,4 14,8 17,3 19,1 11 6 16 8 W 1027,7 25 0 0,0
23.06.2018 07:00:00 10,2 7,3 10,5 14,0 17,5 19,1 6 3 15 8 W 1027,8 25 11 0,0
23.06.2018 06:00:00 9,6 6,9 8,3 13,9 17,8 19,1 8 4 21 11 WNW 1027,7 10 0 0,0
23.06.2018 05:00:00 10,0 7,0 8,9 14,3 18,2 19,2 10 6 18 10 WNW 1027,5 25 0 0,0
23.06.2018 04:00:00 10,2 7,5 8,8 14,8 18,6 19,2 10 5 22 12 WNW 1027,6 30 0 0,0
23.06.2018 03:00:00 11,3 7,6 10,3 15,5 18,9 19,2 12 6 24 13 NW 1027,6 30 0 0,0
23.06.2018 02:00:00 12,4 7,5 12,0 16,3 19,3 19,2 13 7 21 11 WNW 1027,7 10 0 0,0
23.06.2018 01:00:00 12,5 7,7 11,9 16,6 19,6 19,2 11 6 18 10 NW 1027,8 30 0 0,0
23.06.2018 00:00:00 12,5 7,3 11,6 17,1 20,1 19,2 16 9 28 15 NW 1027,8 10 0 0,0
22.06.2018 23:00:00 13,4 7,4 12,9 18,0 20,5 19,2 18 10 27 15 NW 1027,4 10 0 0,0
22.06.2018 22:00:00 13,9 7,4 13,3 19,2 20,9 19,2 16 9 34 18 NW 1027,1 50 0 0,0
22.06.2018 21:00:00 14,6 7,5 14,5 20,5 21,1 19,2 22 12 41 22 NW 1026,7 10 15 0,0
22.06.2018 20:00:00 15,6 7,5 16,3 22,6 21,1 19,3 24 13 42 23 NW 1026,4 10 53 0,0
22.06.2018 19:00:00 16,5 8,0 18,4 23,5 20,9 19,3 26 14 41 22 WNW 1026,1 40 42 0,0
22.06.2018 18:00:00 16,1 7,3 16,5 24,0 20,5 19,3 29 16 48 26 NW 1025,7 35 28 0,0
22.06.2018 17:00:00 17,3 7,4 19,5 24,8 19,8 19,3 26 14 45 24 W 1025,5 35 54 0,0
22.06.2018 16:00:00 16,6 7,8 18,0 23,1 19,1 19,3 26 14 46 25 NW 1025,4 10 50 0,0
22.06.2018 15:00:00 14,6 10,4 16,4 19,4 18,7 19,3 15 8 34 18 W 1025,6 10 17 0,3
22.06.2018 14:00:00 15,0 10,6 16,9 18,4 18,5 19,3 16 9 33 18 WNW 1025,5 25 11 0,3
22.06.2018 13:00:00 13,8 8,5 15,1 17,9 18,3 19,3 22 12 36 19 WNW 1025,5 10 0 0,0
22.06.2018 12:00:00 12,3 8,6 12,6 16,7 18,3 19,2 16 8 41 22 NW 1025,5 20 0 0,1
22.06.2018 11:00:00 12,4 6,4 12,2 16,4 18,3 19,2 24 13 45 24 WNW 1025,3 10 0 0,0
22.06.2018 10:00:00 12,8 6,2 13,0 16,2 18,3 19,2 23 12 38 21 WNW 1024,6 20 0 0,0
22.06.2018 09:00:00 12,1 6,8 12,2 16,0 18,4 19,2 23 12 38 21 W 1024,2 25 0 0,0
22.06.2018 08:00:00 11,3 6,6 11,3 15,3 18,5 19,2 22 12 38 21 W 1024,0 30 0 0,0
22.06.2018 07:00:00 10,6 6,2 10,6 14,9 18,8 19,2 22 12 31 17 W 1023,8 10 0 0,0
22.06.2018 06:00:00 9,9 5,9 9,0 14,9 19,2 19,2 15 8 23 13 W 1023,9 50 0 0,0
22.06.2018 05:00:00 9,7 5,7 8,5 15,3 19,6 19,2 15 8 28 15 W 1023,9 10 0 0,0
22.06.2018 04:00:00 10,1 5,7 9,4 15,4 20,0 19,2 18 10 28 15 W 1024,0 50 0 0,0
22.06.2018 03:00:00 10,2 5,6 9,1 16,1 20,5 19,2 16 9 22 12 W 1024,2 55 0 0,0
22.06.2018 02:00:00 10,6 5,6 9,8 16,5 21,0 19,1 12 7 28 15 W 1024,7 45 0 0,0
22.06.2018 01:00:00 10,8 5,5 9,7 17,2 21,5 19,1 15 8 29 16 WNW 1024,8 55 0 0,0
22.06.2018 00:00:00 11,8 6,1 10,7 18,2 22,1 19,1 21 11 38 21 WNW 1024,9 10 0 0,0
21.06.2018 23:00:00 12,6 6,3 11,7 19,1 22,7 19,1 18 10 38 20 WNW 1024,5 55 0 0,0
21.06.2018 22:00:00 13,2 6,3 12,2 20,3 23,2 19,1 18 10 44 24 WNW 1023,9 10 26 0,0
21.06.2018 21:00:00 14,1 5,1 13,7 22,0 23,7 19,1 27 15 45 24 NW 1023,4 60 21 0,0
21.06.2018 20:00:00 15,4 6,3 15,3 23,6 24,0 19,1 29 16 41 22 WNW 1022,9 60 22 0,0
21.06.2018 19:00:00 15,7 5,8 16,2 24,7 24,2 19,1 25 13 40 22 WNW 1022,6 60 13 0,0
21.06.2018 18:00:00 16,0 5,4 16,8 25,8 24,2 19,0 29 16 42 23 NW 1022,2 60 12 0,0
21.06.2018 17:00:00 17,0 5,1 19,0 26,6 24,1 19,0 27 14 55 30 NW 1021,6 60 16 0,0
21.06.2018 16:00:00 17,0 4,5 18,4 27,9 23,7 19,0 29 16 49 27 NW 1021,1 60 38 0,0
21.06.2018 15:00:00 17,1 3,8 19,5 27,2 23,3 19,0 29 16 51 27 WNW 1020,3 10 32 0,0
21.06.2018 14:00:00 17,7 5,0 20,6 27,4 22,6 19,0 34 18 53 29 WNW 1019,7 60 48 0,0
21.06.2018 13:00:00 17,7 5,3 20,4 26,1 22,0 19,0 35 19 55 30 WNW 1018,9 10 49 0,0
21.06.2018 12:00:00 17,0 9,1 18,2 23,8 21,6 18,9 29 15 54 29 WNW 1018,3 35 27 0,0
21.06.2018 11:00:00 17,3 10,8 18,8 21,7 21,4 18,9 33 18 50 27 WNW 1017,5 25 17 0,0
21.06.2018 10:00:00 16,7 12,2 17,2 20,2 21,4 18,9 28 15 41 22 NW 1016,5 10 0 0,0
21.06.2018 09:00:00 17,2 14,9 17,1 19,7 21,5 18,9 17 9 28 15 W 1015,7 15 0 0,0
21.06.2018 08:00:00 16,9 14,8 16,3 19,9 21,7 18,8 18 10 32 17 WSW 1015,2 10 0 0,0
21.06.2018 07:00:00 17,3 14,2 17,1 19,7 22,0 18,8 16 9 22 12 WSW 1015,0 30 5 0,0
21.06.2018 06:00:00 15,7 13,5 14,0 19,4 22,4 18,8 16 8 21 11 SSW 1014,9 30 0 0,0
21.06.2018 05:00:00 16,7 13,9 14,5 19,8 22,9 18,8 13 7 16 9 SW 1015,4 30 0 0,0
21.06.2018 04:00:00 15,2 13,3 11,2 20,4 23,4 18,8 8 4 11 6 SW 1015,6 35 0 0,0
21.06.2018 03:00:00 15,8 13,5 11,9 21,3 24,0 18,8 8 4 9 5 WSW 1016,5 10 0 0,0
21.06.2018 02:00:00 19,0 14,7 16,0 22,2 24,5 18,8 6 3 8 4 W 1016,8 40 0 0,0
21.06.2018 01:00:00 17,1 14,4 13,4 22,9 25,1 18,8 4 2 5 3 - 1016,7 10 0 0,0
21.06.2018 00:00:00 18,0 14,8 15,1 24,1 25,7 18,8 4 2 8 4 SSW 1017,2 45 0 0,0
20.06.2018 23:00:00 20,8 14,4 16,2 25,5 26,3 18,7 6 4 13 7 WNW 1017,4 50 0 0,0
20.06.2018 22:00:00 23,0 13,9 20,5 27,4 26,8 18,7 9 5 16 9 WNW 1017,2 10 12 0,0
20.06.2018 21:00:00 25,7 13,0 24,8 29,6 27,1 18,7 14 7 23 12 W 1017,1 60 60 0,0
20.06.2018 20:00:00 27,2 13,2 27,9 31,6 27,2 18,7 11 6 24 13 W 1017,5 10 60 0,0
20.06.2018 19:00:00 27,4 13,3 29,1 33,1 27,0 18,7 13 7 39 21 W 1017,9 60 55 0,0
20.06.2018 18:00:00 27,5 14,3 29,0 34,0 26,6 18,7 13 7 24 13 WNW 1018,4 10 46 0,0
20.06.2018 17:00:00 27,3 13,7 29,3 34,7 25,9 18,7 14 8 34 18 W 1019,0 60 52 0,0
20.06.2018 16:00:00 27,6 15,3 31,8 34,7 25,0 18,8 15 8 27 15 W 1019,4 10 58 0,0
20.06.2018 15:00:00 27,5 15,9 31,9 33,3 23,9 18,7 15 8 27 15 WSW 1019,9 10 54 0,0
20.06.2018 14:00:00 25,3 15,5 29,2 31,6 22,9 18,8 16 8 27 15 SW 1020,5 60 52 0,0
20.06.2018 13:00:00 24,1 15,6 26,9 28,9 22,0 18,8 16 9 29 16 WSW 1021,1 10 43 0,0
20.06.2018 12:00:00 23,3 15,6 26,1 26,0 21,4 18,8 18 10 24 13 WSW 1021,6 10 20 0,0
20.06.2018 11:00:00 23,0 15,5 26,2 24,5 20,8 18,8 13 7 21 11 SW 1021,9 10 38 0,0
20.06.2018 10:00:00 21,1 15,0 21,9 22,7 20,3 18,8 13 7 21 11 SW 1022,3 10 38 0,0
20.06.2018 09:00:00 20,5 15,4 22,0 21,0 20,1 18,8 10 5 15 8 WSW 1022,5 50 25 0,0
20.06.2018 08:00:00 19,3 15,6 19,9 20,1 20,1 18,8 13 7 16 9 SW 1022,5 40 0 0,0
20.06.2018 07:00:00 18,9 15,7 18,7 19,5 20,2 18,8 11 6 16 9 SW 1022,5 35 0 0,0
20.06.2018 06:00:00 18,5 15,9 18,0 19,4 20,3 18,8 9 5 14 7 SSW 1022,7 10 0 0,0
20.06.2018 05:00:00 18,2 15,9 17,7 19,6 20,5 18,8 9 5 11 6 SSW 1023,0 10 0 0,0
20.06.2018 04:00:00 18,3 16,0 17,7 19,8 20,6 18,8 5 3 9 5 SW 1023,1 20 0 0,0
20.06.2018 03:00:00 18,5 16,1 17,9 19,9 20,8 18,8 8 4 9 5 SW 1023,5 20 0 0,0
20.06.2018 02:00:00 18,2 15,9 17,2 20,1 21,0 18,8 5 3 8 4 SSW 1023,9 18 0 0,0
20.06.2018 01:00:00 18,5 16,5 17,9 20,6 21,2 18,8 0 0 2 1 N 1024,1 20 0 0,0
20.06.2018 00:00:00 19,5 15,9 18,8 21,0 21,4 18,8 4 2 9 5 WNW 1024,1 10 0 0,0
19.06.2018 23:00:00 19,9 16,0 19,3 21,4 21,6 18,8 8 4 9 5 W 1024,3 10 0 0,0
19.06.2018 22:00:00 20,1 15,9 19,3 22,0 21,7 18,8 5 3 9 5 SW 1023,9 10 0 0,0
19.06.2018 21:00:00 20,9 15,9 20,5 22,8 21,8 18,8 5 3 9 5 WSW 1023,8 10 0 0,0
19.06.2018 20:00:00 21,2 15,6 21,6 23,6 21,7 18,8 5 3 17 9 W 1023,9 10 0 0,0
19.06.2018 19:00:00 21,4 15,2 22,0 24,3 21,5 18,8 13 7 21 11 W 1024,0 35 0 0,0
19.06.2018 18:00:00 21,5 15,4 23,3 24,2 21,2 18,8 15 8 22 12 WSW 1024,1 40 0 0,0
19.06.2018 17:00:00 21,1 15,5 22,2 23,7 21,0 18,8 14 8 22 12 SW 1024,2 40 0 0,0
19.06.2018 16:00:00 21,1 15,2 22,9 23,9 20,6 18,8 10 5 16 9 WSW 1024,3 35 0 0,0
19.06.2018 15:00:00 20,4 15,6 22,4 23,5 20,2 18,8 10 5 20 11 W 1024,3 28 3 0,0
19.06.2018 14:00:00 20,0 15,4 21,9 22,5 19,7 18,8 15 8 21 11 WSW 1024,3 10 0 0,0
19.06.2018 13:00:00 19,0 14,9 20,6 21,2 19,4 18,8 14 7 23 12 W 1024,3 22 0 0,0
19.06.2018 12:00:00 18,5 15,0 19,5 20,1 19,1 18,8 14 8 22 12 W 1024,2 20 0 0,0
19.06.2018 11:00:00 17,2 15,0 17,9 19,0 19,0 18,8 13 7 23 12 WSW 1024,0 8 0 0,0
19.06.2018 10:00:00 17,0 14,1 17,4 18,5 18,9 18,8 14 7 20 11 WSW 1023,8 20 0 0,0
19.06.2018 09:00:00 16,5 13,6 16,7 18,0 18,9 18,8 10 6 21 11 SW 1023,4 25 0 0,0
19.06.2018 08:00:00 15,9 13,1 16,2 17,6 19,0 18,8 11 6 21 11 SW 1023,1 10 0 0,0
19.06.2018 07:00:00 15,3 12,5 15,2 17,3 19,1 18,8 11 6 18 10 SW 1022,8 35 0 0,0
19.06.2018 06:00:00 14,8 12,1 14,6 17,1 19,3 18,8 13 7 21 11 SW 1022,6 40 0 0,0
19.06.2018 05:00:00 14,5 12,0 13,9 16,9 19,6 18,8 12 6 20 11 SW 1022,2 50 0 0,0
19.06.2018 04:00:00 14,0 11,6 12,2 17,0 19,9 18,8 13 7 16 9 SSW 1021,9 55 0 0,0
19.06.2018 03:00:00 14,6 11,8 11,5 17,6 20,3 18,8 11 6 16 9 SSW 1021,7 50 0 0,0
19.06.2018 02:00:00 14,6 11,7 11,1 18,3 20,7 18,9 11 6 15 8 SW 1021,8 55 0 0,0

tt = Température de l'air
td = dewpoint
tt 5cm = Température de l'air 5cm
tt -5cm = Température de l'air -5cm
tt -20cm = Température de l'air -20cm
tt -100cm = Température de l'air -100cm
ff = Vitesse du vent
fx = gusts
dd = Direction du vent
ppp = reduced air pressure
vv = visibility
sd = Ensoleillement
rr = Quantités de précipitations

stations d'obs. à proximité